Home > Weather > Kutaisi > Past weeks

Flag for Georgia Weather for the Past 2 Weeks in Kutaisi, Georgia

Now
30 °F

Ice fog.


Feels Like: 30 °F
Forecast: 46 / 63 °F
Wind: No wind

Location: Nalchik

Current Time: Feb 14, 2016 at 5:02:00 AM

Latest Report: Feb 14, 2016 at 4:00 AM


Visibility: 0 mi

Pressure: 29.92 "Hg

Humidity: 100%

Dew point: 30 °F

Location of KutaisiLocation

Historic Weather in Kutaisi — Graph

°F

Kutaisi Temperature Yesterday

Maximum temperature yesterday: 52 °F (at 3:00 PM)
Minimum temperature yesterday: -13 °F (at 4:30 AM)
Average temperature yesterday: 36 °F

High & Low Weather Summary for the Past Weeks

 TemperatureHumidityPressure
High64 °F (Feb 4, 2:00 PM)100% (Jan 30, 5:00 AM)30.45 "Hg (Jan 30, 5:00 AM)
Low-13 °F (Feb 13, 4:30 AM)16% (Feb 3, 3:00 PM)29.80 "Hg (Feb 1, 9:30 PM)
Average37 °F73%30.13 "Hg
* Reported Jan 30 3:00 AM — Feb 14 3:00 AM, Kutaisi, Weather by CustomWeather, © 2016

Note: Actual official high and low records may vary slightly from our data, if they occured in-between our weather recording intervals... More about our weather records

Advertising

Kutaisi Weather History for the Previous 24 Hours

 ConditionsComfort  
Time TempWeatherWind HumidityBarometerVisibility
3:00 AM
Sun, Feb 14
30 °FIce fog.1 mph100%29.95 "Hg0 mi
2:00 AM32 °FIce fog.1 mph100%29.95 "Hg1 mi
1:00 AM32 °FClear.1 mph93%29.95 "HgN/A
12:00 AM34 °FClear.3 mph93%29.95 "HgN/A
11:00 PM
Sat, Feb 13
36 °FClear.1 mph93%29.98 "HgN/A
10:00 PM34 °FClear.3 mph93%30.01 "HgN/A
9:00 PM36 °FClear.1 mph93%30.01 "HgN/A
8:00 PM36 °FClear.No wind87%30.04 "HgN/A
7:00 PM39 °FClear.1 mph81%30.04 "HgN/A
6:00 PM46 °FClear.3 mph66%30.04 "HgN/A
5:30 PM48 °FClear.3 mph58%30.04 "HgN/A
5:00 PM50 °FClear.3 mph58%30.04 "HgN/A
4:30 PM50 °FClear.6 mph58%30.04 "HgN/A
4:00 PM52 °FClear.3 mph54%30.04 "HgN/A
3:30 PM52 °FClear.3 mph54%30.04 "HgN/A
3:00 PM52 °FClear.3 mph54%30.04 "HgN/A
2:30 PM50 °FClear.3 mph58%30.04 "HgN/A
2:00 PM50 °FClear.3 mph54%30.07 "HgN/A
1:30 PM48 °FClear.3 mph62%30.07 "HgN/A
1:00 PM46 °FClear.1 mph71%30.07 "HgN/A
12:30 PM45 °FClear.1 mph81%30.09 "HgN/A
12:00 PM39 °FClear.1 mph100%30.09 "HgN/A
11:30 AM36 °FFog.No wind93%30.12 "Hg3 mi
11:00 AM32 °FIce fog.1 mph93%30.12 "Hg1 mi
10:30 AM28 °FIce fog.1 mph100%30.12 "Hg0 mi
10:00 AM28 °FIce fog.No wind100%30.12 "Hg0 mi
9:30 AM28 °FIce fog.1 mph100%30.15 "Hg0 mi
9:00 AM28 °FIce fog.No wind100%30.15 "Hg0 mi
8:30 AM28 °FIce fog.No wind100%30.15 "Hg0 mi
8:00 AM27 °FIce fog.No wind100%30.15 "Hg0 mi
7:00 AM28 °FIce fog.1 mph100%30.15 "Hg0 mi
6:00 AM28 °FIce fog.3 mph100%30.12 "Hg0 mi
5:00 AM28 °FIce fog.No wind100%30.12 "Hg0 mi
Weather by CustomWeather, © 2016

See weather overviewHow to use our weather pages